Location: Hohenfelde
(53.8441°N, 9.6220°E)
Time: 12:30:32
(UTC+00:00)

Lacrosse 5 - Pass Details

Date: 14 July 2020
Orbit: 717 x 720 km, 57.0° (Epoch: 09 August)

Event Time Altitude Azimuth Distance (km) Brightness Sun altitude
Exits shadow 00:10:41 18° 218° (SW) 1,736 3.3 -13.9°
Maximum altitude 00:14:22 57° 145° (SE) 847 2.0 -13.8°
Drops below altitude 10° 00:19:20 10° 68° (ENE) 2,207 4.9 -13.7°
Sets 00:21:45 0° 64° (ENE) 3,130 5.8 -13.6°
